Weather History for Idabel, OK

Change the Weather History Date:

Thursday, January 24, 2013

  Actual Average (KDEQ) Record (KDEQ)
Temperature  
Mean Temperature 46 °F 42 °F  
Max Temperature 51 °F 54 °F 80 °F (1950)
Min Temperature 41 °F 29 °F 1 °F (1963)
Degree Days  
Heating Degree Days 19 23  
Month to date heating degree days 569  
Since 1 July heating degree days 1778  
Cooling Degree Days 0 0  
Month to date cooling degree days 0  
Year to date cooling degree days 0  
Moisture  
Dew Point 41 °F    
Average Humidity 83    
Maximum Humidity 94    
Minimum Humidity 66    
Precipitation  
Precipitation 0.00 in 0.10 in 2.78 in (1949)
Month to date precipitation 2.55  
Year to date precipitation 2.55  
Snow  
Snow 0.00 in - - ()
Month to date snowfall  
Since 1 July snowfall  
Snow Depth -    
Sea Level Pressure  
Sea Level Pressure 30.18 in    
Wind  
Wind Speed 8 mph (East)    
Max Wind Speed 20 mph    
Max Gust Speed 24 mph    
Visibility 8 miles    
Events      
T = Trace of Precipitation, MM = Missing Value Source: NWS Daily Summary

Daily Weather History Graph

Daily Weather History Graph

Search for Another Location

Airport:

Trip Planner

Search our weather history database for the weather conditions in past years. The results will help you decide how hot, cold, wet, or windy it might be!

Date:

Astronomy

Jan. 24, 2013 Rise Set
Actual Time 7:21 AM CST 5:42 PM CST
Civil Twilight 6:54 AM CST 6:09 PM CST
Nautical Twilight 6:24 AM CST 6:39 PM CST
Astronomical Twilight 5:54 AM CST 7:09 PM CST
Moon 3:46 PM CST (1/24) 5:17 AM CST (1/24)
Length of Visible Light 11h 14m
Length of Day
10h 21m
Waxing Gibbous, 94% of the Moon is Illuminated
Jan 24
Waxing Gibbous
Jan 26
Full
Feb 3
Last Quarter
Feb 10
New
Feb 17
First Quarter

Hourly Weather History & Observations

Time (CST) Temp. Windchill Dew Point Humidity Pressure Visibility Wind Dir Wind Speed Gust Speed Precip Events Conditions
12:15 AM 51.8 °F - 46.4 °F 82% 30.19 in 10.0 mi Calm Calm - N/A   Clear
12:35 AM 51.8 °F - 46.4 °F 82% 30.19 in 10.0 mi SE 3.5 mph - N/A   Clear
12:55 AM 50.0 °F - 44.6 °F 82% 30.19 in 10.0 mi ENE 3.5 mph - N/A   Clear
1:15 AM 50.0 °F - 44.6 °F 82% 30.19 in 10.0 mi ESE 3.5 mph - N/A   Clear
1:35 AM 48.2 °F - 44.6 °F 87% 30.19 in 7.0 mi Calm Calm - N/A   Clear
1:55 AM 46.4 °F 45.2 °F 44.6 °F 93% 30.19 in 7.0 mi ENE 3.5 mph - N/A   Clear
2:15 AM 46.4 °F - 44.6 °F 93% 30.19 in 5.0 mi Calm Calm - N/A   Clear
2:35 AM 46.4 °F 44.3 °F 44.6 °F 93% 30.20 in 5.0 mi NE 4.6 mph - N/A   Clear
2:55 AM 46.4 °F 43.5 °F 44.6 °F 93% 30.19 in 7.0 mi East 5.8 mph - N/A   Clear
3:15 AM 46.4 °F 43.5 °F 44.6 °F 93% 30.18 in 7.0 mi East 5.8 mph - N/A   Clear
3:35 AM 46.4 °F 43.5 °F 44.6 °F 93% 30.18 in 7.0 mi East 5.8 mph - N/A   Clear
3:55 AM 46.4 °F 41.9 °F 44.6 °F 93% 30.17 in 10.0 mi East 9.2 mph - N/A   Clear
4:15 AM 46.4 °F 41.9 °F 44.6 °F 93% 30.18 in 10.0 mi East 9.2 mph - N/A   Clear
4:35 AM 46.4 °F 42.4 °F 44.6 °F 93% 30.18 in 10.0 mi East 8.1 mph - N/A   Clear
4:55 AM 46.4 °F 42.4 °F 44.6 °F 93% 30.18 in 10.0 mi East 8.1 mph - N/A   Clear
5:15 AM 46.4 °F 41.9 °F 44.6 °F 93% 30.18 in 10.0 mi East 9.2 mph - N/A   Clear
5:35 AM 46.4 °F 42.9 °F 44.6 °F 93% 30.18 in 10.0 mi East 6.9 mph - N/A   Clear
5:55 AM 46.4 °F 42.4 °F 44.6 °F 93% 30.18 in 10.0 mi East 8.1 mph - N/A   Scattered Clouds
6:15 AM 46.4 °F 42.4 °F 44.6 °F 93% 30.18 in 10.0 mi East 8.1 mph - N/A   Mostly Cloudy
6:35 AM 46.4 °F 42.9 °F 44.6 °F 93% 30.19 in 10.0 mi East 6.9 mph - N/A   Overcast
6:55 AM 48.2 °F - 44.6 °F 87% 30.20 in 10.0 mi East 10.4 mph - N/A   Overcast
7:15 AM 48.2 °F - 44.6 °F 87% 30.20 in 10.0 mi East 9.2 mph - N/A   Overcast
7:35 AM 48.2 °F - 46.4 °F 93% 30.20 in 7.0 mi East 9.2 mph - N/A   Overcast
7:55 AM 50.0 °F - 46.4 °F 87% 30.21 in 7.0 mi East 8.1 mph - N/A   Overcast
8:15 AM 50.0 °F - 46.4 °F 87% 30.21 in 7.0 mi East 9.2 mph - N/A   Overcast
8:35 AM 50.0 °F - 46.4 °F 87% 30.22 in 7.0 mi East 8.1 mph - N/A   Overcast
8:55 AM 51.8 °F - 48.2 °F 88% 30.22 in 7.0 mi East 8.1 mph - N/A   Overcast
9:15 AM 51.8 °F - 50.0 °F 94% 30.23 in 4.0 mi East 10.4 mph - N/A   Overcast
9:35 AM 51.8 °F - 50.0 °F 94% 30.23 in 2.5 mi East 10.4 mph - N/A   Overcast
9:55 AM 51.8 °F - 50.0 °F 94% 30.23 in 1.8 mi East 11.5 mph - N/A   Overcast
10:15 AM 51.8 °F - 50.0 °F 94% 30.23 in 1.5 mi East 11.5 mph - N/A   Overcast
10:35 AM 51.8 °F - 50.0 °F 94% 30.23 in 1.2 mi East 12.7 mph 17.3 mph N/A   Overcast
10:55 AM 50.0 °F - 46.4 °F 87% 30.25 in 1.5 mi East 11.5 mph 20.7 mph N/A   Overcast
11:15 AM 50.0 °F - 46.4 °F 87% 30.26 in 1.5 mi East 17.3 mph 24.2 mph N/A   Overcast
11:35 AM 46.4 °F 40.4 °F 44.6 °F 93% 30.25 in 1.8 mi East 13.8 mph 21.9 mph N/A   Overcast
11:55 AM 46.4 °F 39.0 °F 44.6 °F 93% 30.24 in 1.2 mi East 19.6 mph - N/A   Overcast
12:15 PM 46.4 °F 39.8 °F 42.8 °F 87% 30.24 in 1.2 mi East 16.1 mph 20.7 mph N/A   Overcast
12:35 PM 44.6 °F 38.1 °F 42.8 °F 93% 30.23 in 1.8 mi East 13.8 mph 19.6 mph N/A   Overcast
12:55 PM 44.6 °F 38.1 °F 42.8 °F 93% 30.22 in 2.0 mi East 13.8 mph 19.6 mph N/A   Overcast
1:15 PM 44.6 °F 38.8 °F 42.8 °F 93% 30.21 in 3.0 mi East 11.5 mph - N/A   Overcast
1:35 PM 44.6 °F 38.4 °F 42.8 °F 93% 30.18 in 4.0 mi East 12.7 mph 20.7 mph N/A   Overcast
1:55 PM 46.4 °F 41.1 °F 42.8 °F 87% 30.17 in 5.0 mi East 11.5 mph - N/A   Overcast
2:15 PM 46.4 °F 40.1 °F 42.8 °F 87% 30.17 in 7.0 mi East 15.0 mph - N/A   Overcast
2:35 PM 46.4 °F 41.5 °F 41.0 °F 81% 30.17 in 7.0 mi East 10.4 mph - N/A   Overcast
2:55 PM 46.4 °F 42.4 °F 41.0 °F 81% 30.17 in 10.0 mi East 8.1 mph 17.3 mph N/A   Overcast
3:15 PM 46.4 °F 40.7 °F 39.2 °F 76% 30.17 in 10.0 mi East 12.7 mph 17.3 mph N/A   Overcast
3:35 PM 46.4 °F 40.7 °F 39.2 °F 76% 30.17 in 10.0 mi East 12.7 mph 16.1 mph N/A   Overcast
3:55 PM 46.4 °F 42.4 °F 39.2 °F 76% 30.17 in 10.0 mi East 8.1 mph - N/A   Overcast
4:15 PM 46.4 °F 41.5 °F 37.4 °F 71% 30.17 in 10.0 mi East 10.4 mph - N/A   Overcast
4:35 PM 46.4 °F 40.7 °F 37.4 °F 71% 30.17 in 10.0 mi East 12.7 mph - N/A   Overcast
4:55 PM 46.4 °F 40.4 °F 37.4 °F 71% 30.16 in 10.0 mi East 13.8 mph 18.4 mph N/A   Overcast
5:15 PM 44.6 °F 38.4 °F 37.4 °F 76% 30.15 in 10.0 mi East 12.7 mph - N/A   Overcast
5:35 PM 44.6 °F 39.7 °F 35.6 °F 71% 30.15 in 10.0 mi East 9.2 mph 16.1 mph N/A   Overcast
5:55 PM 44.6 °F 38.4 °F 35.6 °F 71% 30.17 in 10.0 mi East 12.7 mph 18.4 mph N/A   Overcast
6:15 PM 44.6 °F 39.2 °F 35.6 °F 71% 30.16 in 10.0 mi East 10.4 mph - N/A   Overcast
6:35 PM 44.6 °F 37.8 °F 35.6 °F 71% 30.16 in 10.0 mi East 15.0 mph - N/A   Overcast
6:55 PM 44.6 °F 37.8 °F 35.6 °F 71% 30.16 in 10.0 mi ESE 15.0 mph - N/A   Overcast
7:15 PM 44.6 °F 38.4 °F 33.8 °F 66% 30.17 in 10.0 mi East 12.7 mph 21.9 mph N/A   Overcast
7:35 PM 42.8 °F 35.4 °F 33.8 °F 70% 30.17 in 10.0 mi East 15.0 mph 21.9 mph N/A   Overcast
7:55 PM 42.8 °F 35.4 °F 32.0 °F 66% 30.17 in 10.0 mi East 15.0 mph 20.7 mph N/A   Overcast
8:15 PM 42.8 °F 37.0 °F 33.8 °F 70% 30.16 in 10.0 mi East 10.4 mph 19.6 mph N/A   Overcast
8:35 PM 42.8 °F 36.2 °F 33.8 °F 70% 30.15 in 10.0 mi East 12.7 mph 17.3 mph N/A   Overcast
8:55 PM 42.8 °F 36.6 °F 33.8 °F 70% 30.15 in 10.0 mi East 11.5 mph - N/A   Overcast
9:15 PM 42.8 °F 37.5 °F 33.8 °F 70% 30.14 in 10.0 mi East 9.2 mph - N/A   Overcast
9:35 PM 41.0 °F 35.8 °F 32.0 °F 70% 30.14 in 10.0 mi East 8.1 mph 18.4 mph N/A   Overcast
9:55 PM 41.0 °F 33.9 °F 32.0 °F 70% 30.15 in 10.0 mi East 12.7 mph - N/A   Overcast
10:15 PM 41.0 °F 34.7 °F 32.0 °F 70% 30.15 in 10.0 mi East 10.4 mph 16.1 mph N/A   Overcast
10:35 PM 41.0 °F 34.7 °F 32.0 °F 70% 30.15 in 10.0 mi East 10.4 mph 16.1 mph N/A   Overcast
10:55 PM 41.0 °F 33.9 °F 32.0 °F 70% 30.15 in 10.0 mi ENE 12.7 mph - N/A   Overcast
11:15 PM 41.0 °F 34.7 °F 32.0 °F 70% 30.15 in 10.0 mi East 10.4 mph - N/A   Overcast
11:35 PM 41.0 °F 35.2 °F 32.0 °F 70% 30.14 in 10.0 mi East 9.2 mph - N/A   Overcast
11:55 PM 41.0 °F 34.7 °F 32.0 °F 70% 30.13 in 10.0 mi East 10.4 mph - N/A   Overcast